Regional Weather Roundup
Issued by NWS

Home | Current Version | Previous Version | Graphics & Text | Print | Product List | Glossary On
Versions: 1 2 3 4 5 6 7 8 9 10 11 12 13 14 15 16 17 18 19 20 21 22 23 24 25 26 27 28 29 30 31 32 33 34 35 36 37 38 39 40 41 42 43 44 45 46 47 48 49 50
000
ASUS44 KMEG 292000
RWRTN
TENNESSEE HOURLY STATE WEATHER ROUNDUP
NATIONAL WEATHER SERVICE MEMPHIS TN
300 PM CDT MON AUG 29 2016

TNZ002-004-019-021-049-052-054-088>092-292100-
WEST TENNESSEE

CITY           SKY/WX    TMP DP  RH WIND       PRES   REMARKS
MEMPHIS INTL   PTSUNNY   95  73  48 NE12      30.06F HX 104
NWS MEMPHIS      N/A     92 N/A N/A MISG        N/A
JACKSON        SUNNY     92  74  55 VRB3      30.09F HX 101
DYERSBURG      MOSUNNY   91  73  55 MISG      30.08F HX 100
PARIS          PTSUNNY   88  75  66 E6        30.12F HX  97
LEXINGTON      MOSUNNY   90  73  58 N5        30.09F HX  98
$$

TNZ008-025-027-028-033-062-065-066-292100-
NORTH MIDDLE TENNESSEE

CITY           SKY/WX    TMP DP  RH WIND       PRES   REMARKS
NASHVILLE      MOSUNNY   92  68  45 N9        30.12F HX  96
CLARKSVILLE    MOSUNNY   91  72  53 NE7       30.11F HX  98
COOKEVILLE     SUNNY     90  72  55 VRB7      30.13F HX  96
CROSSVILLE     MOSUNNY   84  68  58 NE6       30.18F
$$

TNZ061-075-076-078-094-096-097-292100-
SOUTH MIDDLE TENNESSEE

CITY           SKY/WX    TMP DP  RH WIND       PRES   REMARKS
SHELBYVILLE    MOSUNNY   91  73  55 N6        30.12F HX 100
$$

TNZ017-018-042-046-047-292100-
NORTHEAST TENNESSEE

CITY           SKY/WX    TMP DP  RH WIND       PRES   REMARKS
TRI CITIES     MOSUNNY   90  65  43 VRB3      30.15F HX  92
$$

TNZ012-013-036-069-073-074-292100-
CENTRAL EAST TENNESSEE

CITY           SKY/WX    TMP DP  RH WIND       PRES   REMARKS
KNOXVILLE      NOT AVBL
OAK RIDGE      SUNNY     93  60  33 CALM      30.14F HX  93
GATLINBURG     SUNNY     90  61  37 NE7       30.11F
$$

TNZ083-085-099-292100-
SOUTHEAST TENNESSEE

CITY           SKY/WX    TMP DP  RH WIND       PRES   REMARKS
CHATTANOOGA    MOSUNNY   92  64  39 NE9       30.10F HX  93
$$

SKY/WX REPORTED AS FAIR MEANS FEW OR NO CLOUDS BELOW
12 THOUSAND FEET.





USA.gov is the U.S. government's official web portal to all federal, state and local government web resources and services.